Location: Newark
(34.0131°N, 4.3314°W)
Time: 12:51:55
(UTC+00:00)

Transit 4A - All Passes

Search period start: 17 October 2019 00:00
Search period end: 27 October 2019 00:00
Orbit: 866 x 978 km, 66.8° (Epoch: 16 October)

Date Brightness Start Highest point End Pass type
(mag) Time Alt. Az. Time Alt. Az. Time Alt. Az.
17 Oct - 03:35:45 10° ESE 03:37:21 11° E 03:38:55 10° E visible
17 Oct - 05:16:27 10° SSW 05:22:50 89° ESE 05:29:10 10° NNE visible
17 Oct - 07:06:26 10° W 07:09:59 15° NW 07:13:30 10° NNW daylight
17 Oct - 14:23:49 10° NNW 14:29:34 47° ENE 14:35:08 10° SE daylight
17 Oct - 16:11:08 10° WNW 16:15:28 21° WSW 16:19:43 10° SSW daylight
18 Oct - 03:42:11 10° SE 03:46:23 19° ESE 03:50:33 10° ENE visible
18 Oct - 05:25:55 10° SW 05:32:12 61° WNW 05:38:26 10° NNE visible
18 Oct - 07:19:25 10° NW 07:19:48 10° NW 07:20:10 10° NW daylight
18 Oct - 12:49:57 10° NNE 12:51:32 11° NE 12:53:05 10° ENE daylight
18 Oct - 14:33:00 10° NNW 14:38:57 73° ENE 14:44:45 10° SSE daylight
18 Oct - 16:22:02 10° WNW 16:24:30 13° WSW 16:26:57 10° SW daylight
19 Oct - 03:50:09 10° SSE 03:55:30 29° ESE 04:00:48 10° NE visible
19 Oct - 05:35:41 10° SW 05:41:39 41° WNW 05:47:33 10° NNE visible
19 Oct - 12:57:37 10° N 13:01:18 17° NE 13:04:55 10° E daylight
19 Oct - 14:42:21 10° NNW 14:48:16 73° WSW 14:54:02 10° SSE daylight
20 Oct - 03:58:40 10° S 04:04:41 45° ESE 04:10:37 10° NE visible
20 Oct - 05:45:49 10° WSW 05:51:10 28° NW 05:56:29 10° N visible
20 Oct - 13:06:11 10° N 13:10:57 24° NE 13:15:37 10° ESE daylight
20 Oct - 14:51:52 10° NW 14:57:29 46° WSW 15:02:59 10° S daylight
21 Oct - 04:07:35 10° SSW 04:13:55 69° ESE 04:20:11 10° NNE visible
21 Oct - 05:56:23 10° W 06:00:48 19° NW 06:05:10 10° N visible
21 Oct - 13:15:04 10° N 13:20:31 36° ENE 13:25:49 10° ESE daylight
21 Oct - 15:01:41 10° NW 15:06:39 29° WSW 15:11:32 10° SSW daylight
22 Oct - 02:34:43 10° SE 02:37:37 13° ESE 02:40:30 10° ENE visible
22 Oct - 04:16:51 10° SSW 04:23:14 79° WNW 04:29:32 10° NNE visible
22 Oct - 06:07:42 10° WNW 06:10:31 13° NW 06:13:22 10° NNW daylight
22 Oct - 13:24:08 10° NNW 13:29:58 55° ENE 13:35:38 10° SE daylight
22 Oct - 15:11:56 10° WNW 15:15:44 18° WSW 15:19:29 10° SW daylight
23 Oct - 02:42:00 10° SSE 02:46:41 22° ESE 02:51:21 10° ENE visible
23 Oct - 04:26:26 10° SW 04:32:38 53° WNW 04:38:45 10° NNE visible
23 Oct - 11:49:31 10° NNE 11:52:05 13° NE 11:54:37 10° ENE daylight
23 Oct - 13:33:22 10° NNW 13:39:20 85° ENE 13:45:08 10° SSE daylight
23 Oct - 15:24:02 10° W 15:24:45 10° W 15:25:28 10° WSW daylight
24 Oct - 02:50:12 10° S 02:55:50 34° ESE 03:01:24 10° NE visible
24 Oct - 04:36:20 10° WSW 04:42:05 35° WNW 04:47:48 10° N visible
24 Oct - 11:57:41 10° N 12:01:48 19° NE 12:05:51 10° E daylight
24 Oct - 13:42:46 10° NNW 13:48:36 62° WSW 13:54:18 10° SSE daylight
25 Oct - 02:58:53 10° S 03:05:02 53° ESE 03:11:06 10° NE visible
25 Oct - 04:46:36 10° WSW 04:51:39 24° NW 04:56:39 10° N visible
25 Oct - 12:06:23 10° N 12:11:25 28° NE 12:16:21 10° ESE daylight
25 Oct - 13:52:24 10° NW 13:57:48 39° WSW 14:03:07 10° S daylight
26 Oct - 03:07:56 10° SSW 03:14:18 80° ESE 03:20:35 10° NNE visible
26 Oct - 04:57:24 10° W 05:01:19 17° NW 05:05:12 10° N visible
26 Oct - 12:15:20 10° NNW 12:20:56 42° ENE 12:26:24 10° SE daylight
26 Oct - 14:02:20 10° NW 14:06:56 24° WSW 14:11:29 10° SSW daylight
